Flag for Libya Weather past 2 weeks in Benghazi, Libya

79 °F

Scattered clouds.

Feels Like: 81 °F
Forecast: 78 / 85 °F
Wind: 18 mph from Northwest

Location: Souda Airport

Current Time: Oct 7, 2015 at 3:36:59 PM

Latest Report: Oct 7, 2015 at 2:50 PM

Visibility: N/A

Pressure: 29.83 "Hg

Humidity: 65%

Dew point: 66 °F

Location of BenghaziLocation

Historic Weather in Benghazi — Graph


Benghazi temperature yesterday

Maximum temperature yesterday: 81 °F (at 1:50 PM)
Minimum temperature yesterday: 70 °F (at 12:20 AM)
Average temperature yesterday: 73 °F

Past Weeks' High & Low Weather Summary

High82 °F (Sep 24, 12:50 PM)94% (Sep 22, 6:50 PM)30.24 "Hg (Sep 22, 6:50 PM)
Low61 °F (Oct 4, 1:50 AM)51% (Sep 24, 12:50 PM)29.65 "Hg (Sep 22, 2:20 PM)
Average72 °F77%29.99 "Hg
* Reported Sep 22 2:20 PM — Oct 7 2:20 PM, Benghazi, Weather by CustomWeather, © 2015

Note: Actual official high and low records may vary slightly from our data, if they occured in-between our weather recording intervals... More about our weather records


Benghazi weather history for previous 24 hours

Time TempWeatherWind HumidityBarometerVisibility
2:20 PM
Wed, Oct 7
81 °FScattered clouds.15 mph62%29.83 "HgN/A
1:50 PM81 °FPassing clouds.16 mph58%29.83 "HgN/A
1:20 PM79 °FPassing clouds.14 mph61%29.83 "HgN/A
12:50 PM79 °FPassing clouds.14 mph61%29.83 "HgN/A
12:20 PM79 °FPassing clouds.16 mph65%29.83 "HgN/A
11:50 AM79 °FPassing clouds.16 mph65%29.83 "HgN/A
11:20 AM77 °FPassing clouds.14 mph65%29.83 "HgN/A
10:50 AM77 °FPassing clouds.14 mph65%29.83 "HgN/A
10:20 AM77 °FPassing clouds.14 mph69%29.83 "HgN/A
9:50 AM77 °FPassing clouds.14 mph69%29.83 "HgN/A
9:20 AM75 °FPassing clouds.16 mph69%29.83 "HgN/A
8:50 AM75 °FPassing clouds.14 mph69%29.83 "HgN/A
8:20 AM75 °FPassing clouds.14 mph78%29.80 "HgN/A
7:50 AM73 °FPassing clouds.12 mph78%29.80 "HgN/A
6:50 AM70 °FPassing clouds.9 mph83%29.80 "HgN/A
6:20 AM70 °FPassing clouds.12 mph83%29.80 "HgN/A
5:50 AM70 °FPassing clouds.13 mph83%29.80 "HgN/A
5:20 AM70 °FPassing clouds.15 mph83%29.80 "HgN/A
4:50 AM70 °FPassing clouds.15 mph83%29.80 "HgN/A
4:20 AM72 °FPassing clouds.14 mph78%29.80 "HgN/A
3:50 AM72 °FPassing clouds.14 mph78%29.80 "HgN/A
3:20 AM72 °FPassing clouds.16 mph78%29.83 "HgN/A
2:50 AM72 °FPassing clouds.16 mph78%29.83 "HgN/A
2:20 AM72 °FPassing clouds.16 mph78%29.83 "HgN/A
1:50 AM72 °FPassing clouds.15 mph78%29.83 "HgN/A
1:20 AM72 °FPassing clouds.22 mph78%29.83 "HgN/A
12:50 AM72 °FPassing clouds.14 mph78%29.83 "HgN/A
12:20 AM72 °FPassing clouds.14 mph78%29.83 "HgN/A
11:50 PM
Tue, Oct 6
72 °FPassing clouds.14 mph78%29.83 "HgN/A
11:20 PM72 °FPassing clouds.15 mph78%29.83 "HgN/A
10:50 PM72 °FPassing clouds.15 mph78%29.83 "HgN/A
10:20 PM72 °FPassing clouds.14 mph78%29.86 "HgN/A
9:50 PM72 °FPassing clouds.14 mph78%29.86 "HgN/A
9:20 PM72 °FPassing clouds.12 mph78%29.83 "HgN/A
8:50 PM72 °FPassing clouds.12 mph78%29.83 "HgN/A
8:20 PM72 °FPassing clouds.12 mph78%29.83 "HgN/A
7:50 PM72 °FPassing clouds.12 mph78%29.83 "HgN/A
7:20 PM72 °FPassing clouds.9 mph73%29.83 "HgN/A
6:50 PM72 °FScattered clouds.12 mph73%29.83 "HgN/A
6:20 PM73 °FPassing clouds.14 mph83%29.83 "HgN/A
5:50 PM73 °FPassing clouds.12 mph83%29.83 "HgN/A
5:20 PM75 °FPassing clouds.14 mph69%29.83 "HgN/A
4:50 PM75 °FPassing clouds.12 mph69%29.83 "HgN/A
4:20 PM79 °FPassing clouds.12 mph70%29.83 "HgN/A
3:50 PM79 °FPassing clouds.12 mph70%29.83 "HgN/A
3:20 PM81 °FScattered clouds.12 mph58%29.80 "HgN/A
Weather by CustomWeather, © 2015

See weather overviewHow to use our weather pages